Location: Unspecified
(47.7670°N, 8.8522°E)
Time: 15:29:02
(UTC+01:00)

ISS - Pass Details

Date: 02 February 2019
Orbit: 403 x 411 km, 51.6° (Epoch: 20 February)

Event Time Altitude Azimuth Distance (km) Brightness Sun altitude
Rises 18:03:06 0° 279° (W) 2,332 1.3 -6.6°
Reaches altitude 10° 18:05:15 10° 287° (WNW) 1,474 0.0 -6.9°
Maximum altitude 18:08:24 40° 359° (N) 620 -3.0 -7.5°
Enters shadow 18:11:26 11° 70° (ENE) 1,435 -1.7 -7.9°
